Location: Beetenbrück
(52.8113°N, 9.5946°E)
Time: 16:17:31
(UTC+00:00)

ARIANE 6 FM1 Upper Stage - Pass Details

Date: 14 April 2026
Orbit: 526 x 602 km, 62.0° (Epoch: 9 May)

Event Time Altitude Azimuth Distance (km) Brightness Sun altitude
Rises 23:14:56 0° 306° (NW) 2,688 6.6 -27.5°
Reaches altitude 10° 23:17:22 10° 318° (NW) 1,788 5.8 -27.5°
Maximum altitude 23:20:55 30° 20° (NNE) 980 4.4 -27.5°
Enters shadow 23:22:07 25° 52° (NE) 1,101 4.4 -27.5°
